owner,sensor,date,latitude,longitude,vertical_datum,mass_concentration_of_oxygen_in_sea_water,qcFlag 
LUMCON,ioos:station:LUMCON:101:1,2017-06-01T00:00:00Z,29.2533,-90.6633,94.7,7.2,1111122 
LUMCON,ioos:station:LUMCON:101:1,2017-06-01T00:15:00Z,29.2533,-90.6633,94.3,7.18,1111122 
LUMCON,ioos:station:LUMCON:101:1,2017-06-01T00:30:00Z,29.2533,-90.6633,94.8,7.22,1111122 
LUMCON,ioos:station:LUMCON:101:1,2017-06-01T00:45:00Z,29.2533,-90.6633,91.1,6.93,1111122 
LUMCON,ioos:station:LUMCON:101:1,2017-06-01T01:00:00Z,29.2533,-90.6633,88.2,6.69,1111122 
LUMCON,ioos:station:LUMCON:101:1,2017-06-01T01:15:00Z,29.2533,-90.6633,88.6,6.73,1111122 
LUMCON,ioos:station:LUMCON:101:1,2017-06-01T01:30:00Z,29.2533,-90.6633,87.7,6.67,1111122 
LUMCON,ioos:station:LUMCON:101:1,2017-06-01T01:45:00Z,29.2533,-90.6633,87.6,6.67,1111122 
LUMCON,ioos:station:LUMCON:101:1,2017-06-01T02:00:00Z,29.2533,-90.6633,88.6,6.74,1111122 
LUMCON,ioos:station:LUMCON:101:1,2017-06-01T02:15:00Z,29.2533,-90.6633,88.7,6.75,1111122 
LUMCON,ioos:station:LUMCON:101:1,2017-06-01T02:30:00Z,29.2533,-90.6633,86.8,6.6,1111122 
LUMCON,ioos:station:LUMCON:101:1,2017-06-01T02:45:00Z,29.2533,-90.6633,88.1,6.72,1111122 
LUMCON,ioos:station:LUMCON:101:1,2017-06-01T03:00:00Z,29.2533,-90.6633,87.0,6.63,1111122 
LUMCON,ioos:station:LUMCON:101:1,2017-06-01T03:15:00Z,29.2533,-90.6633,90.2,6.88,1111122 
LUMCON,ioos:station:LUMCON:101:1,2017-06-01T03:30:00Z,29.2533,-90.6633,89.4,6.83,1111122 
LUMCON,ioos:station:LUMCON:101:1,2017-06-01T03:45:00Z,29.2533,-90.6633,91.3,6.99,1111122 
LUMCON,ioos:station:LUMCON:101:1,2017-06-01T04:00:00Z,29.2533,-90.6633,89.4,6.85,1111122 
LUMCON,ioos:station:LUMCON:101:1,2017-06-01T04:15:00Z,29.2533,-90.6633,91.1,6.98,1111122 
LUMCON,ioos:station:LUMCON:101:1,2017-06-01T04:30:00Z,29.2533,-90.6633,83.8,6.43,1111122 
LUMCON,ioos:station:LUMCON:101:1,2017-06-01T04:45:00Z,29.2533,-90.6633,85.7,6.58,1111122 
LUMCON,ioos:station:LUMCON:101:1,2017-06-01T05:00:00Z,29.2533,-90.6633,88.3,6.79,1111122 
LUMCON,ioos:station:LUMCON:101:1,2017-06-01T05:15:00Z,29.2533,-90.6633,88.1,6.78,1111122 
LUMCON,ioos:station:LUMCON:101:1,2017-06-01T05:30:00Z,29.2533,-90.6633,85.5,6.59,1111122 
LUMCON,ioos:station:LUMCON:101:1,2017-06-01T05:45:00Z,29.2533,-90.6633,87.3,6.73,1111122 
LUMCON,ioos:station:LUMCON:101:1,2017-06-01T06:00:00Z,29.2533,-90.6633,86.7,6.69,1111122 
LUMCON,ioos:station:LUMCON:101:1,2017-06-01T06:15:00Z,29.2533,-90.6633,84.9,6.57,1111122 
LUMCON,ioos:station:LUMCON:101:1,2017-06-01T06:30:00Z,29.2533,-90.6633,86.5,6.7,1111122 
LUMCON,ioos:station:LUMCON:101:1,2017-06-01T06:45:00Z,29.2533,-90.6633,84.8,6.58,1111122 
LUMCON,ioos:station:LUMCON:101:1,2017-06-01T07:00:00Z,29.2533,-90.6633,84.9,6.58,1111122 
LUMCON,ioos:station:LUMCON:101:1,2017-06-01T07:15:00Z,29.2533,-90.6633,84.7,6.57,1111122 
LUMCON,ioos:station:LUMCON:101:1,2017-06-01T07:30:00Z,29.2533,-90.6633,82.2,6.38,1111122 
LUMCON,ioos:station:LUMCON:101:1,2017-06-01T07:45:00Z,29.2533,-90.6633,77.63,6.03,1111122 
LUMCON,ioos:station:LUMCON:101:1,2017-06-01T08:00:00Z,29.2533,-90.6633,77.53,6.02,1111122 
LUMCON,ioos:station:LUMCON:101:1,2017-06-01T08:15:00Z,29.2533,-90.6633,77.56,6.02,1111122 
LUMCON,ioos:station:LUMCON:101:1,2017-06-01T08:30:00Z,29.2533,-90.6633,80.3,6.23,1111122 
LUMCON,ioos:station:LUMCON:101:1,2017-06-01T08:45:00Z,29.2533,-90.6633,78.01,6.06,1111122 
LUMCON,ioos:station:LUMCON:101:1,2017-06-01T09:00:00Z,29.2533,-90.6633,78.98,6.14,1111122 
LUMCON,ioos:station:LUMCON:101:1,2017-06-01T09:15:00Z,29.2533,-90.6633,78.23,6.08,1111122 
LUMCON,ioos:station:LUMCON:101:1,2017-06-01T09:30:00Z,29.2533,-90.6633,72.98,5.68,1111122 
LUMCON,ioos:station:LUMCON:101:1,2017-06-01T09:45:00Z,29.2533,-90.6633,74.05,5.76,1111122 
LUMCON,ioos:station:LUMCON:101:1,2017-06-01T10:00:00Z,29.2533,-90.6633,71.91,5.59,1111122 
LUMCON,ioos:station:LUMCON:101:1,2017-06-01T10:15:00Z,29.2533,-90.6633,70.93,5.53,1111122 
LUMCON,ioos:station:LUMCON:101:1,2017-06-01T10:30:00Z,29.2533,-90.6633,76.0,5.93,1111122 
LUMCON,ioos:station:LUMCON:101:1,2017-06-01T10:45:00Z,29.2533,-90.6633,72.4,5.64,1111122 
LUMCON,ioos:station:LUMCON:101:1,2017-06-01T11:00:00Z,29.2533,-90.6633,72.94,5.71,1111122 
LUMCON,ioos:station:LUMCON:101:1,2017-06-01T11:15:00Z,29.2533,-90.6633,75.12,5.89,1111122 
LUMCON,ioos:station:LUMCON:101:1,2017-06-01T11:30:00Z,29.2533,-90.6633,71.42,5.58,1111122 
LUMCON,ioos:station:LUMCON:101:1,2017-06-01T11:45:00Z,29.2533,-90.6633,72.29,5.66,1111122 
LUMCON,ioos:station:LUMCON:101:1,2017-06-01T12:00:00Z,29.2533,-90.6633,74.71,5.86,1111122 
LUMCON,ioos:station:LUMCON:101:1,2017-06-01T12:15:00Z,29.2533,-90.6633,76.74,6.03,1111122 
LUMCON,ioos:station:LUMCON:101:1,2017-06-01T12:30:00Z,29.2533,-90.6633,70.31,5.51,1111122 
LUMCON,ioos:station:LUMCON:101:1,2017-06-01T12:45:00Z,29.2533,-90.6633,75.26,5.92,1111122 
LUMCON,ioos:station:LUMCON:101:1,2017-06-01T13:00:00Z,29.2533,-90.6633,73.9,5.82,1111122 
LUMCON,ioos:station:LUMCON:101:1,2017-06-01T13:15:00Z,29.2533,-90.6633,74.21,5.83,1111122 
LUMCON,ioos:station:LUMCON:101:1,2017-06-01T13:30:00Z,29.2533,-90.6633,68.33,5.36,1111122 
LUMCON,ioos:station:LUMCON:101:1,2017-06-01T13:45:00Z,29.2533,-90.6633,69.42,5.47,1111122 
LUMCON,ioos:station:LUMCON:101:1,2017-06-01T14:00:00Z,29.2533,-90.6633,73.15,5.75,1111122 
LUMCON,ioos:station:LUMCON:101:1,2017-06-01T14:15:00Z,29.2533,-90.6633,75.89,5.95,1111122 
LUMCON,ioos:station:LUMCON:101:1,2017-06-01T14:30:00Z,29.2533,-90.6633,76.23,5.99,1111122 
LUMCON,ioos:station:LUMCON:101:1,2017-06-01T14:45:00Z,29.2533,-90.6633,76.46,6.02,1111122 
LUMCON,ioos:station:LUMCON:101:1,2017-06-01T15:00:00Z,29.2533,-90.6633,77.41,6.09,1111122 
LUMCON,ioos:station:LUMCON:101:1,2017-06-01T15:15:00Z,29.2533,-90.6633,79.64,6.26,1111122 
LUMCON,ioos:station:LUMCON:101:1,2017-06-01T15:30:00Z,29.2533,-90.6633,80.2,6.3,1111122 
LUMCON,ioos:station:LUMCON:101:1,2017-06-01T15:45:00Z,29.2533,-90.6633,80.1,6.29,1111122 
LUMCON,ioos:station:LUMCON:101:1,2017-06-01T16:00:00Z,29.2533,-90.6633,0.0,-9999.0,1111122 
LUMCON,ioos:station:LUMCON:101:1,2017-06-01T16:15:00Z,29.2533,-90.6633,0.0,-9999.0,1111122 
LUMCON,ioos:station:LUMCON:101:1,2017-06-01T16:30:00Z,29.2533,-90.6633,0.0,-9999.0,1111122 
LUMCON,ioos:station:LUMCON:101:1,2017-06-01T16:45:00Z,29.2533,-90.6633,0.0,-9999.0,1111122 
LUMCON,ioos:station:LUMCON:101:1,2017-06-01T17:00:00Z,29.2533,-90.6633,0.0,-9999.0,1111122 
LUMCON,ioos:station:LUMCON:101:1,2017-06-01T17:15:00Z,29.2533,-90.6633,0.0,-9999.0,1111122 
LUMCON,ioos:station:LUMCON:101:1,2017-06-01T17:30:00Z,29.2533,-90.6633,0.0,-9999.0,1111122 
LUMCON,ioos:station:LUMCON:101:1,2017-06-01T17:45:00Z,29.2533,-90.6633,0.0,-9999.0,1111122 
LUMCON,ioos:station:LUMCON:101:1,2017-06-01T18:00:00Z,29.2533,-90.6633,0.0,-9999.0,1111122 
LUMCON,ioos:station:LUMCON:101:1,2017-06-01T18:15:00Z,29.2533,-90.6633,0.0,-9999.0,1111122 
LUMCON,ioos:station:LUMCON:101:1,2017-06-01T18:30:00Z,29.2533,-90.6633,0.0,-9999.0,1111122 
LUMCON,ioos:station:LUMCON:101:1,2017-06-01T18:45:00Z,29.2533,-90.6633,0.0,-9999.0,1111122 
LUMCON,ioos:station:LUMCON:101:1,2017-06-01T19:00:00Z,29.2533,-90.6633,0.0,-9999.0,1111122 
LUMCON,ioos:station:LUMCON:101:1,2017-06-01T19:15:00Z,29.2533,-90.6633,0.0,-9999.0,1111122 
LUMCON,ioos:station:LUMCON:101:1,2017-06-01T19:30:00Z,29.2533,-90.6633,0.0,-9999.0,1111122 
LUMCON,ioos:station:LUMCON:101:1,2017-06-01T19:45:00Z,29.2533,-90.6633,0.0,-9999.0,1111122 
LUMCON,ioos:station:LUMCON:101:1,2017-06-01T20:00:00Z,29.2533,-90.6633,91.0,7.0,1111122 
LUMCON,ioos:station:LUMCON:101:1,2017-06-01T20:15:00Z,29.2533,-90.6633,95.8,7.34,1111122 
LUMCON,ioos:station:LUMCON:101:1,2017-06-01T20:30:00Z,29.2533,-90.6633,91.0,7.01,1111122 
LUMCON,ioos:station:LUMCON:101:1,2017-06-01T20:45:00Z,29.2533,-90.6633,88.3,6.81,1111122 
LUMCON,ioos:station:LUMCON:101:1,2017-06-01T21:00:00Z,29.2533,-90.6633,90.1,6.92,1111122 
LUMCON,ioos:station:LUMCON:101:1,2017-06-01T21:15:00Z,29.2533,-90.6633,90.1,6.91,1111122 
LUMCON,ioos:station:LUMCON:101:1,2017-06-01T21:30:00Z,29.2533,-90.6633,92.1,7.07,1111122 
LUMCON,ioos:station:LUMCON:101:1,2017-06-01T21:45:00Z,29.2533,-90.6633,93.3,7.16,1111122 
LUMCON,ioos:station:LUMCON:101:1,2017-06-01T22:00:00Z,29.2533,-90.6633,92.1,7.07,1111122 
LUMCON,ioos:station:LUMCON:101:1,2017-06-01T22:15:00Z,29.2533,-90.6633,93.5,7.16,1111122 
LUMCON,ioos:station:LUMCON:101:1,2017-06-01T22:30:00Z,29.2533,-90.6633,92.6,7.1,1111122 
LUMCON,ioos:station:LUMCON:101:1,2017-06-01T22:45:00Z,29.2533,-90.6633,91.0,6.99,1111122 
LUMCON,ioos:station:LUMCON:101:1,2017-06-01T23:00:00Z,29.2533,-90.6633,90.2,6.93,1111122 
LUMCON,ioos:station:LUMCON:101:1,2017-06-01T23:15:00Z,29.2533,-90.6633,86.2,6.62,1111122 
LUMCON,ioos:station:LUMCON:101:1,2017-06-01T23:30:00Z,29.2533,-90.6633,88.5,6.79,1111122 
LUMCON,ioos:station:LUMCON:101:1,2017-06-01T23:45:00Z,29.2533,-90.6633,86.7,6.65,1111122 
LUMCON,ioos:station:LUMCON:101:1,2017-06-02T00:00:00Z,29.2533,-90.6633,79.89,6.13,1111122 
LUMCON,ioos:station:LUMCON:101:1,2017-06-02T00:15:00Z,29.2533,-90.6633,83.8,6.43,1111122 
LUMCON,ioos:station:LUMCON:101:1,2017-06-02T00:30:00Z,29.2533,-90.6633,84.0,6.45,1111122 
LUMCON,ioos:station:LUMCON:101:1,2017-06-02T00:45:00Z,29.2533,-90.6633,86.7,6.65,1111122 
LUMCON,ioos:station:LUMCON:101:1,2017-06-02T01:00:00Z,29.2533,-90.6633,83.7,6.44,1111122 
LUMCON,ioos:station:LUMCON:101:1,2017-06-02T01:15:00Z,29.2533,-90.6633,84.4,6.49,1111122 
LUMCON,ioos:station:LUMCON:101:1,2017-06-02T01:30:00Z,29.2533,-90.6633,85.8,6.59,1111122 
LUMCON,ioos:station:LUMCON:101:1,2017-06-02T01:45:00Z,29.2533,-90.6633,84.7,6.51,1111122 
LUMCON,ioos:station:LUMCON:101:1,2017-06-02T02:00:00Z,29.2533,-90.6633,83.1,6.38,1111122 
LUMCON,ioos:station:LUMCON:101:1,2017-06-02T02:15:00Z,29.2533,-90.6633,83.8,6.43,1111122 
LUMCON,ioos:station:LUMCON:101:1,2017-06-02T02:30:00Z,29.2533,-90.6633,84.9,6.51,1111122 
LUMCON,ioos:station:LUMCON:101:1,2017-06-02T02:45:00Z,29.2533,-90.6633,85.5,6.56,1111122 
LUMCON,ioos:station:LUMCON:101:1,2017-06-02T03:00:00Z,29.2533,-90.6633,84.9,6.51,1111122 
LUMCON,ioos:station:LUMCON:101:1,2017-06-02T03:15:00Z,29.2533,-90.6633,83.4,6.4,1111122 
LUMCON,ioos:station:LUMCON:101:1,2017-06-02T03:30:00Z,29.2533,-90.6633,83.0,6.37,1111122 
LUMCON,ioos:station:LUMCON:101:1,2017-06-02T03:45:00Z,29.2533,-90.6633,81.3,6.24,1111122 
LUMCON,ioos:station:LUMCON:101:1,2017-06-02T04:00:00Z,29.2533,-90.6633,78.64,6.04,1111122 
LUMCON,ioos:station:LUMCON:101:1,2017-06-02T04:15:00Z,29.2533,-90.6633,67.6,5.19,1111122 
LUMCON,ioos:station:LUMCON:101:1,2017-06-02T04:30:00Z,29.2533,-90.6633,75.79,5.82,1111122 
LUMCON,ioos:station:LUMCON:101:1,2017-06-02T04:45:00Z,29.2533,-90.6633,78.56,6.04,1111122 
LUMCON,ioos:station:LUMCON:101:1,2017-06-02T05:00:00Z,29.2533,-90.6633,77.34,5.95,1111122 
LUMCON,ioos:station:LUMCON:101:1,2017-06-02T05:15:00Z,29.2533,-90.6633,79.28,6.1,1111122 
LUMCON,ioos:station:LUMCON:101:1,2017-06-02T05:30:00Z,29.2533,-90.6633,75.76,5.84,1111122 
LUMCON,ioos:station:LUMCON:101:1,2017-06-02T05:45:00Z,29.2533,-90.6633,76.06,5.86,1111122 
LUMCON,ioos:station:LUMCON:101:1,2017-06-02T06:00:00Z,29.2533,-90.6633,75.43,5.82,1111122 
LUMCON,ioos:station:LUMCON:101:1,2017-06-02T06:15:00Z,29.2533,-90.6633,76.09,5.86,1111122 
LUMCON,ioos:station:LUMCON:101:1,2017-06-02T06:30:00Z,29.2533,-90.6633,72.44,5.59,1111122 
LUMCON,ioos:station:LUMCON:101:1,2017-06-02T06:45:00Z,29.2533,-90.6633,76.93,5.94,1111122 
LUMCON,ioos:station:LUMCON:101:1,2017-06-02T07:00:00Z,29.2533,-90.6633,75.7,5.85,1111122 
LUMCON,ioos:station:LUMCON:101:1,2017-06-02T07:15:00Z,29.2533,-90.6633,71.67,5.54,1111122 
LUMCON,ioos:station:LUMCON:101:1,2017-06-02T07:30:00Z,29.2533,-90.6633,68.14,5.27,1111122 
LUMCON,ioos:station:LUMCON:101:1,2017-06-02T07:45:00Z,29.2533,-90.6633,65.38,5.06,1111122 
LUMCON,ioos:station:LUMCON:101:1,2017-06-02T08:00:00Z,29.2533,-90.6633,64.23,4.97,1111122 
LUMCON,ioos:station:LUMCON:101:1,2017-06-02T08:15:00Z,29.2533,-90.6633,69.53,5.37,1111122 
LUMCON,ioos:station:LUMCON:101:1,2017-06-02T08:30:00Z,29.2533,-90.6633,71.5,5.54,1111122 
LUMCON,ioos:station:LUMCON:101:1,2017-06-02T08:45:00Z,29.2533,-90.6633,73.23,5.68,1111122 
LUMCON,ioos:station:LUMCON:101:1,2017-06-02T09:00:00Z,29.2533,-90.6633,71.63,5.56,1111122 
LUMCON,ioos:station:LUMCON:101:1,2017-06-02T09:15:00Z,29.2533,-90.6633,64.68,5.02,1111122 
LUMCON,ioos:station:LUMCON:101:1,2017-06-02T09:30:00Z,29.2533,-90.6633,72.01,5.59,1111122 
LUMCON,ioos:station:LUMCON:101:1,2017-06-02T09:45:00Z,29.2533,-90.6633,69.42,5.4,1111122 
LUMCON,ioos:station:LUMCON:101:1,2017-06-02T10:00:00Z,29.2533,-90.6633,65.14,5.06,1111122 
LUMCON,ioos:station:LUMCON:101:1,2017-06-02T10:15:00Z,29.2533,-90.6633,68.98,5.37,1111122 
LUMCON,ioos:station:LUMCON:101:1,2017-06-02T10:30:00Z,29.2533,-90.6633,70.81,5.53,1111122 
LUMCON,ioos:station:LUMCON:101:1,2017-06-02T10:45:00Z,29.2533,-90.6633,70.67,5.51,1111122 
LUMCON,ioos:station:LUMCON:101:1,2017-06-02T11:00:00Z,29.2533,-90.6633,70.92,5.54,1111122 
LUMCON,ioos:station:LUMCON:101:1,2017-06-02T11:15:00Z,29.2533,-90.6633,73.17,5.72,1111122 
LUMCON,ioos:station:LUMCON:101:1,2017-06-02T11:30:00Z,29.2533,-90.6633,73.76,5.77,1111122 
LUMCON,ioos:station:LUMCON:101:1,2017-06-02T11:45:00Z,29.2533,-90.6633,71.98,5.62,1111122 
LUMCON,ioos:station:LUMCON:101:1,2017-06-02T12:00:00Z,29.2533,-90.6633,74.7,5.84,1111122 
LUMCON,ioos:station:LUMCON:101:1,2017-06-02T12:15:00Z,29.2533,-90.6633,75.67,5.91,1111122 
LUMCON,ioos:station:LUMCON:101:1,2017-06-02T12:30:00Z,29.2533,-90.6633,78.28,6.09,1111122 
LUMCON,ioos:station:LUMCON:101:1,2017-06-02T12:45:00Z,29.2533,-90.6633,78.78,6.12,1111122 
LUMCON,ioos:station:LUMCON:101:1,2017-06-02T13:00:00Z,29.2533,-90.6633,80.2,6.22,1111122 
LUMCON,ioos:station:LUMCON:101:1,2017-06-02T13:15:00Z,29.2533,-90.6633,79.94,6.19,1111122 
LUMCON,ioos:station:LUMCON:101:1,2017-06-02T13:30:00Z,29.2533,-90.6633,80.1,6.2,1111122 
LUMCON,ioos:station:LUMCON:101:1,2017-06-02T13:45:00Z,29.2533,-90.6633,80.7,6.25,1111122 
LUMCON,ioos:station:LUMCON:101:1,2017-06-02T14:00:00Z,29.2533,-90.6633,80.4,6.22,1111122 
LUMCON,ioos:station:LUMCON:101:1,2017-06-02T14:15:00Z,29.2533,-90.6633,81.0,6.28,1111122 
LUMCON,ioos:station:LUMCON:101:1,2017-06-02T14:30:00Z,29.2533,-90.6633,81.2,6.3,1111122 
LUMCON,ioos:station:LUMCON:101:1,2017-06-02T14:45:00Z,29.2533,-90.6633,81.0,6.28,1111122 
LUMCON,ioos:station:LUMCON:101:1,2017-06-02T15:00:00Z,29.2533,-90.6633,81.6,6.34,1111122 
LUMCON,ioos:station:LUMCON:101:1,2017-06-02T15:15:00Z,29.2533,-90.6633,79.38,6.16,1111122 
LUMCON,ioos:station:LUMCON:101:1,2017-06-02T15:30:00Z,29.2533,-90.6633,81.3,6.32,1111122 
LUMCON,ioos:station:LUMCON:101:1,2017-06-02T15:45:00Z,29.2533,-90.6633,82.6,6.44,1111122 
LUMCON,ioos:station:LUMCON:101:1,2017-06-02T16:00:00Z,29.2533,-90.6633,84.8,6.6,1111122 
LUMCON,ioos:station:LUMCON:101:1,2017-06-02T16:15:00Z,29.2533,-90.6633,83.2,6.48,1111122 
LUMCON,ioos:station:LUMCON:101:1,2017-06-02T16:30:00Z,29.2533,-90.6633,85.1,6.63,1111122 
LUMCON,ioos:station:LUMCON:101:1,2017-06-02T16:45:00Z,29.2533,-90.6633,84.9,6.62,1111122 
LUMCON,ioos:station:LUMCON:101:1,2017-06-02T17:00:00Z,29.2533,-90.6633,86.5,6.74,1111122 
LUMCON,ioos:station:LUMCON:101:1,2017-06-02T17:15:00Z,29.2533,-90.6633,82.1,6.4,1111122 
LUMCON,ioos:station:LUMCON:101:1,2017-06-02T17:30:00Z,29.2533,-90.6633,78.93,6.15,1111122 
LUMCON,ioos:station:LUMCON:101:1,2017-06-02T17:45:00Z,29.2533,-90.6633,84.5,6.58,1111122 
LUMCON,ioos:station:LUMCON:101:1,2017-06-02T18:00:00Z,29.2533,-90.6633,83.8,6.53,1111122 
LUMCON,ioos:station:LUMCON:101:1,2017-06-02T18:15:00Z,29.2533,-90.6633,80.5,6.27,1111122 
LUMCON,ioos:station:LUMCON:101:1,2017-06-02T18:30:00Z,29.2533,-90.6633,86.9,6.74,1111122 
LUMCON,ioos:station:LUMCON:101:1,2017-06-02T18:45:00Z,29.2533,-90.6633,82.6,6.41,1111122 
LUMCON,ioos:station:LUMCON:101:1,2017-06-02T19:00:00Z,29.2533,-90.6633,82.6,6.4,1111122 
LUMCON,ioos:station:LUMCON:101:1,2017-06-02T19:15:00Z,29.2533,-90.6633,76.93,5.97,1111122 
LUMCON,ioos:station:LUMCON:101:1,2017-06-02T19:30:00Z,29.2533,-90.6633,77.93,6.05,1111122 
LUMCON,ioos:station:LUMCON:101:1,2017-06-02T19:45:00Z,29.2533,-90.6633,78.73,6.11,1111122 
LUMCON,ioos:station:LUMCON:101:1,2017-06-02T20:00:00Z,29.2533,-90.6633,80.9,6.28,1111122 
LUMCON,ioos:station:LUMCON:101:1,2017-06-02T20:15:00Z,29.2533,-90.6633,88.1,6.81,1111122 
LUMCON,ioos:station:LUMCON:101:1,2017-06-02T20:30:00Z,29.2533,-90.6633,88.8,6.85,1111122 
LUMCON,ioos:station:LUMCON:101:1,2017-06-02T20:45:00Z,29.2533,-90.6633,86.7,6.7,1111122 
LUMCON,ioos:station:LUMCON:101:1,2017-06-02T21:00:00Z,29.2533,-90.6633,81.5,6.3,1111122 
LUMCON,ioos:station:LUMCON:101:1,2017-06-02T21:15:00Z,29.2533,-90.6633,75.46,5.84,1111122 
LUMCON,ioos:station:LUMCON:101:1,2017-06-02T21:30:00Z,29.2533,-90.6633,83.3,6.44,1111122 
LUMCON,ioos:station:LUMCON:101:1,2017-06-02T21:45:00Z,29.2533,-90.6633,85.1,6.57,1111122 
LUMCON,ioos:station:LUMCON:101:1,2017-06-02T22:00:00Z,29.2533,-90.6633,83.9,6.46,1111122 
LUMCON,ioos:station:LUMCON:101:1,2017-06-02T22:15:00Z,29.2533,-90.6633,79.88,6.17,1111122 
LUMCON,ioos:station:LUMCON:101:1,2017-06-02T22:30:00Z,29.2533,-90.6633,80.2,6.2,1111122 
LUMCON,ioos:station:LUMCON:101:1,2017-06-02T22:45:00Z,29.2533,-90.6633,78.52,6.06,1111122 
LUMCON,ioos:station:LUMCON:101:1,2017-06-02T23:00:00Z,29.2533,-90.6633,81.1,6.27,1111122 
LUMCON,ioos:station:LUMCON:101:1,2017-06-02T23:15:00Z,29.2533,-90.6633,81.3,6.27,1111122 
LUMCON,ioos:station:LUMCON:101:1,2017-06-02T23:30:00Z,29.2533,-90.6633,82.6,6.37,1111122 
LUMCON,ioos:station:LUMCON:101:1,2017-06-02T23:45:00Z,29.2533,-90.6633,83.7,6.45,1111122 
LUMCON,ioos:station:LUMCON:101:1,2017-06-03T00:00:00Z,29.2533,-90.6633,79.57,6.13,1111122 
LUMCON,ioos:station:LUMCON:101:1,2017-06-03T00:15:00Z,29.2533,-90.6633,77.14,5.95,1111122 
LUMCON,ioos:station:LUMCON:101:1,2017-06-03T00:30:00Z,29.2533,-90.6633,77.24,5.96,1111122 
LUMCON,ioos:station:LUMCON:101:1,2017-06-03T00:45:00Z,29.2533,-90.6633,79.0,6.11,1111122 
LUMCON,ioos:station:LUMCON:101:1,2017-06-03T01:00:00Z,29.2533,-90.6633,79.32,6.14,1111122 
LUMCON,ioos:station:LUMCON:101:1,2017-06-03T01:15:00Z,29.2533,-90.6633,80.6,6.25,1111122 
LUMCON,ioos:station:LUMCON:101:1,2017-06-03T01:30:00Z,29.2533,-90.6633,78.25,6.07,1111122 
LUMCON,ioos:station:LUMCON:101:1,2017-06-03T01:45:00Z,29.2533,-90.6633,77.91,6.04,1111122 
LUMCON,ioos:station:LUMCON:101:1,2017-06-03T02:00:00Z,29.2533,-90.6633,78.46,6.09,1111122 
LUMCON,ioos:station:LUMCON:101:1,2017-06-03T02:15:00Z,29.2533,-90.6633,77.58,6.03,1111122 
LUMCON,ioos:station:LUMCON:101:1,2017-06-03T02:30:00Z,29.2533,-90.6633,75.74,5.89,1111122 
LUMCON,ioos:station:LUMCON:101:1,2017-06-03T02:45:00Z,29.2533,-90.6633,72.93,5.67,1111122 
LUMCON,ioos:station:LUMCON:101:1,2017-06-03T03:00:00Z,29.2533,-90.6633,69.98,5.44,1111122 
LUMCON,ioos:station:LUMCON:101:1,2017-06-03T03:15:00Z,29.2533,-90.6633,67.2,5.23,1111122 
LUMCON,ioos:station:LUMCON:101:1,2017-06-03T03:30:00Z,29.2533,-90.6633,70.57,5.49,1111122 
LUMCON,ioos:station:LUMCON:101:1,2017-06-03T03:45:00Z,29.2533,-90.6633,69.29,5.39,1111122 
LUMCON,ioos:station:LUMCON:101:1,2017-06-03T04:00:00Z,29.2533,-90.6633,71.95,5.6,1111122 
LUMCON,ioos:station:LUMCON:101:1,2017-06-03T04:15:00Z,29.2533,-90.6633,73.52,5.73,1111122 
LUMCON,ioos:station:LUMCON:101:1,2017-06-03T04:30:00Z,29.2533,-90.6633,73.93,5.76,1111122 
LUMCON,ioos:station:LUMCON:101:1,2017-06-03T04:45:00Z,29.2533,-90.6633,75.76,5.9,1111122 
LUMCON,ioos:station:LUMCON:101:1,2017-06-03T05:00:00Z,29.2533,-90.6633,75.36,5.88,1111122 
LUMCON,ioos:station:LUMCON:101:1,2017-06-03T05:15:00Z,29.2533,-90.6633,76.05,5.93,1111122 
LUMCON,ioos:station:LUMCON:101:1,2017-06-03T05:30:00Z,29.2533,-90.6633,77.44,6.05,1111122 
LUMCON,ioos:station:LUMCON:101:1,2017-06-03T05:45:00Z,29.2533,-90.6633,77.0,6.02,1111122 
LUMCON,ioos:station:LUMCON:101:1,2017-06-03T06:00:00Z,29.2533,-90.6633,77.07,6.02,1111122 
LUMCON,ioos:station:LUMCON:101:1,2017-06-03T06:15:00Z,29.2533,-90.6633,73.9,5.78,1111122 
LUMCON,ioos:station:LUMCON:101:1,2017-06-03T06:30:00Z,29.2533,-90.6633,76.62,5.99,1111122 
LUMCON,ioos:station:LUMCON:101:1,2017-06-03T06:45:00Z,29.2533,-90.6633,75.4,5.89,1111122 
LUMCON,ioos:station:LUMCON:101:1,2017-06-03T07:00:00Z,29.2533,-90.6633,76.43,5.98,1111122 
LUMCON,ioos:station:LUMCON:101:1,2017-06-03T07:15:00Z,29.2533,-90.6633,75.44,5.91,1111122 
LUMCON,ioos:station:LUMCON:101:1,2017-06-03T07:30:00Z,29.2533,-90.6633,75.84,5.94,1111122 
LUMCON,ioos:station:LUMCON:101:1,2017-06-03T07:45:00Z,29.2533,-90.6633,73.86,5.79,1111122 
LUMCON,ioos:station:LUMCON:101:1,2017-06-03T08:00:00Z,29.2533,-90.6633,71.84,5.63,1111122 
LUMCON,ioos:station:LUMCON:101:1,2017-06-03T08:15:00Z,29.2533,-90.6633,71.38,5.6,1111122 
LUMCON,ioos:station:LUMCON:101:1,2017-06-03T08:30:00Z,29.2533,-90.6633,69.38,5.44,1111122 
LUMCON,ioos:station:LUMCON:101:1,2017-06-03T08:45:00Z,29.2533,-90.6633,70.04,5.5,1111122 
LUMCON,ioos:station:LUMCON:101:1,2017-06-03T09:00:00Z,29.2533,-90.6633,67.08,5.27,1111122 
LUMCON,ioos:station:LUMCON:101:1,2017-06-03T09:15:00Z,29.2533,-90.6633,64.6,5.07,1111122 
LUMCON,ioos:station:LUMCON:101:1,2017-06-03T09:30:00Z,29.2533,-90.6633,67.4,5.29,1111122 
LUMCON,ioos:station:LUMCON:101:1,2017-06-03T09:45:00Z,29.2533,-90.6633,67.2,5.28,1111122 
LUMCON,ioos:station:LUMCON:101:1,2017-06-03T10:00:00Z,29.2533,-90.6633,64.11,5.04,1111122 
LUMCON,ioos:station:LUMCON:101:1,2017-06-03T10:15:00Z,29.2533,-90.6633,63.23,4.97,1111122 
LUMCON,ioos:station:LUMCON:101:1,2017-06-03T10:30:00Z,29.2533,-90.6633,66.17,5.2,1111122 
LUMCON,ioos:station:LUMCON:101:1,2017-06-03T10:45:00Z,29.2533,-90.6633,66.65,5.24,1111122 
LUMCON,ioos:station:LUMCON:101:1,2017-06-03T11:00:00Z,29.2533,-90.6633,67.45,5.31,1111122 
LUMCON,ioos:station:LUMCON:101:1,2017-06-03T11:15:00Z,29.2533,-90.6633,67.06,5.28,1111122 
LUMCON,ioos:station:LUMCON:101:1,2017-06-03T11:30:00Z,29.2533,-90.6633,66.69,5.25,1111122 
LUMCON,ioos:station:LUMCON:101:1,2017-06-03T11:45:00Z,29.2533,-90.6633,65.31,5.15,1111122 
LUMCON,ioos:station:LUMCON:101:1,2017-06-03T12:00:00Z,29.2533,-90.6633,62.33,4.91,1111122 
LUMCON,ioos:station:LUMCON:101:1,2017-06-03T12:15:00Z,29.2533,-90.6633,63.91,5.04,1111122 
LUMCON,ioos:station:LUMCON:101:1,2017-06-03T12:30:00Z,29.2533,-90.6633,62.85,4.96,1111122 
LUMCON,ioos:station:LUMCON:101:1,2017-06-03T12:45:00Z,29.2533,-90.6633,53.73,4.24,1111122 
LUMCON,ioos:station:LUMCON:101:1,2017-06-03T13:00:00Z,29.2533,-90.6633,58.94,4.65,1111122 
LUMCON,ioos:station:LUMCON:101:1,2017-06-03T13:15:00Z,29.2533,-90.6633,61.08,4.82,1111122 
LUMCON,ioos:station:LUMCON:101:1,2017-06-03T13:30:00Z,29.2533,-90.6633,59.29,4.68,1111122 
LUMCON,ioos:station:LUMCON:101:1,2017-06-03T13:45:00Z,29.2533,-90.6633,62.88,4.96,1111122 
LUMCON,ioos:station:LUMCON:101:1,2017-06-03T14:00:00Z,29.2533,-90.6633,64.41,5.08,1111122 
LUMCON,ioos:station:LUMCON:101:1,2017-06-03T14:15:00Z,29.2533,-90.6633,65.52,5.17,1111122 
LUMCON,ioos:station:LUMCON:101:1,2017-06-03T14:30:00Z,29.2533,-90.6633,67.33,5.32,1111122 
LUMCON,ioos:station:LUMCON:101:1,2017-06-03T14:45:00Z,29.2533,-90.6633,68.36,5.4,1111122 
LUMCON,ioos:station:LUMCON:101:1,2017-06-03T15:00:00Z,29.2533,-90.6633,69.75,5.51,1111122 
LUMCON,ioos:station:LUMCON:101:1,2017-06-03T15:15:00Z,29.2533,-90.6633,71.5,5.64,1111122 
LUMCON,ioos:station:LUMCON:101:1,2017-06-03T15:30:00Z,29.2533,-90.6633,74.08,5.83,1111122 
LUMCON,ioos:station:LUMCON:101:1,2017-06-03T15:45:00Z,29.2533,-90.6633,75.37,5.92,1111122 
LUMCON,ioos:station:LUMCON:101:1,2017-06-03T16:00:00Z,29.2533,-90.6633,74.19,5.81,1111122 
LUMCON,ioos:station:LUMCON:101:1,2017-06-03T16:15:00Z,29.2533,-90.6633,73.76,5.77,1111122 
LUMCON,ioos:station:LUMCON:101:1,2017-06-03T16:30:00Z,29.2533,-90.6633,75.3,5.87,1111122 
LUMCON,ioos:station:LUMCON:101:1,2017-06-03T16:45:00Z,29.2533,-90.6633,74.57,5.81,1111122 
LUMCON,ioos:station:LUMCON:101:1,2017-06-03T17:00:00Z,29.2533,-90.6633,76.71,5.96,1111122 
LUMCON,ioos:station:LUMCON:101:1,2017-06-03T17:15:00Z,29.2533,-90.6633,77.29,5.99,1111122 
LUMCON,ioos:station:LUMCON:101:1,2017-06-03T17:30:00Z,29.2533,-90.6633,76.62,5.94,1111122 
LUMCON,ioos:station:LUMCON:101:1,2017-06-03T17:45:00Z,29.2533,-90.6633,83.2,6.44,1111122 